Tracking 17632 objects as of 1-May-2016
HD Live streaming from Space Station
objects crossing your sky now

SYRACUSE 3B

Track SYRACUSE 3B now!
SYRACUSE 3B is classified as:


NORAD ID: 29273
Int'l Code: 2006-033B
Perigee: 35,776.9 km
Apogee: 35,811.1 km
Inclination: 0.0 °
Period: 1,436.1 minutes
Semi major axis: 42164 km
RCS: 25.7711 m2 (large)
Launch date: August 11, 2006
Source: France (FR)
Launch site: FRENCH GUIANA (FRGUI)

Syracuse 3B is a French military geostationary satellite. It carries four spot beams in SHF frequencies and two spot beams in EHF frequencies.
Your satellite tracking list
Your tracking list is empty





NASA's NSSDC Master Catalog

Two Line Element Set (TLE):
1 29273U 06033B   16122.16477675 -.00000054  00000-0  00000+0 0  9999
2 29273   0.0142 287.7340 0004057  94.1038 251.8082  1.00271031 35654
Source of the keplerian elements: AFSPC

N2YO: 361